Погода в Гайе

Индия     24°47′37″N   84°59′46″E
темп.,
°C
ветер,
м/с
пор.,
м/с
влажн.,
%
обл.,
%
осадки,
мм/ч
давл.,
гПа
погр.,
м
12 мая, ср
ср1223:30+31всв23470 2.3 1004100
02:30+29вюв23470 0.0 100389
05:30+28юв364952 0.0 1003162
08:30+33ю11355 0.0 1005768
11:30+38сз362216 0.0 10032938
14:30+32ю10114020 0.1 1000445
17:30+27всв89589 0.6 1001510
20:30+27юв611578 0.1 1002392
13 мая, чт
чт1323:30+29всв355540 0.1 1003453
02:30+28вюв365812 0.0 1002274
05:30+27св346010 0.0 1003222
08:30+30св444946 0.0 1005856
11:30+34ссв76398 0.1 10041490
14:30+35св66335 0.2 10011724
17:30+32вюв664431 0.3 10001036
20:30+29ююв225484 0.1 1003302
14 мая, пт
пт1423:30+30юв255110 0.1 1003492
02:30+27ююз25610 0.0 1002222
05:30+27юв11630 0.0 100325
08:30+32в11440 0.0 1004834
11:30+37сз23270 0.0 10032358
14:30+38ссз362286 0.0 9993188
17:30+38ссв152080 0.0 9982825
20:30+35ссв36283 0.0 1001162
15 мая, сб
сб1523:30+32ююв34347 0.0 100191
02:30+31в223869 0.0 100132
05:30+30в22435 0.0 100225
08:30+36юв122830 0.0 1003745
11:30+41сз141883 0.0 10023214
14:30+43ссз4713100 0.0 9984562
17:30+42с5513100 0.0 9982950
20:30+37всв362046 0.0 1000136
16 мая, вс
вс1623:30+36всв362326 0.0 1001190
02:30+32всв353340 0.0 100190
05:30+31юв3443100 0.0 100297
08:30+37юз333013 0.0 1003580
11:30+43ссз37145 0.0 10024257
14:30+45с67118 0.0 9984701
17:30+43ссв65139 0.0 9982027
20:30+38в362016 0.0 1001111